Other Surface Observations
Issued by NWS Tucson, AZ

Home | Current Version | Previous Version | Text Only | Print | Product List | Glossary On
Versions: 1 2 3 4 5 6 7 8 9 10 11 12 13 14 15 16 17 18 19 20 21 22 23 24 25 26 27 28 29 30 31 32 33 34 35 36 37 38 39 40 41 42 43 44 45 46 47 48 49 50
288
SXUS55 KTWC 232315
OSOTWC

WEATHER ROUNDUP FOR SOUTHEAST ARIZONA
NATIONAL WEATHER SERVICE TUCSON AZ
415 PM MST MON MAY 23 2016

AZZ504>506-514-240015-
LOCATION       SKY/WX    TMP DP  RH WIND       PRES   REMARKS
TUCSON         SUNNY     90  27  10 W16G23    29.80F
DAVIS-MONTHAN  NOT AVBL
CHILDRENS PARK N/A      N/A N/A  11 W6                PIMA CO DEQ
ALVERNON/22ND  N/A       89 N/A N/A W4                PIMA CO DEQ
CHERRY/GLENN   N/A      N/A N/A N/A N/A               PIMA CO DEQ
TANGERINE      N/A       87 N/A N/A W7                PIMA CO DEQ
CONTL RANCH    N/A       90  28  11 W8                PIMA CO DEQ
GRANT/1ST      N/A       89  28  11 SW8               PIMA CO DEQ
CRAYCROFT/22ND N/A       89  30  12 N/A               PIMA CO DEQ
GOLFLINKS/KOLB N/A      N/A N/A N/A N/A               PIMA CO DEQ
AJO/12TH       N/A       90  28  11 SW10              PIMA CO DEQ
SAGUARO EAST   N/A       31 -14  12 W6                PIMA CO DEQ
FAIRGROUNDS    N/A       87 N/A N/A SW14              PIMA CO DEQ
SAGUARO        N/A       90  33  13 SW6G17            *SABINO CYN
SAN CARLOS     N/A       88  27  11 SW11G18           *SAN CARLOS
GREEN VALLEY   N/A       87  24  10 SW11              PIMA CO DEQ
HORSE CAMP CYN N/A       82  28  14 SW12G25           *ARAVAIPA CYN
RINCON MTNS    NOT AVBL
$$

AZZ509>511-240015-
LOCATION       SKY/WX    TMP DP  RH WIND       PRES   REMARKS
SAFFORD        SUNNY     88  23   9 CALM      29.77F
STRAY HORSE    N/A       66  14  13 SW10G21           *
TRAIL CABIN    NOT AVBL
BLACK HILLS    NOT AVBL
DRY LAKE       N/A       71  24  17 SW4G16            *NATANES MTNS
NOON CREEK     NOT AVBL
COLUMBINE      N/A       60  20  21 SW7G19            *PINALENO MTNS
GUTHRIE        N/A       76  18  11 SW12G30           *SW OF GUTHRIE
$$

AZZ502-503-513-240015-
LOCATION       SKY/WX    TMP DP  RH WIND       PRES   REMARKS
NOGALES        SUNNY     86  21   9 SW22G29   29.89F
SELLS          N/A       88  22   9 N12G22            *
SASABE         N/A       85  25  11 SW12G22           *ALTAR VLY
HOPKINS        N/A       76  22  13 W10G21            *SANTA RITA MTNS
CARR CYN       N/A       81  14   8 W4G18             *W OF HEREFORD
$$

AZZ507-508-512-240015-
LOCATION       SKY/WX    TMP DP  RH WIND       PRES   REMARKS
SIERRA VISTA   SUNNY     82  14   7 SW16G23   29.92F
DOUGLAS        SUNNY     87  12   6 SW21G36   29.87F
EMPIRE MTNS    NOT AVBL
MULESHOE RANCH N/A       84  24  11 W6G28             *PRESERVE
HEADQUARTERS   NOT AVBL
$$

.............................NOTES.............................
THIS IS AN AUTOMATED COLLECTIVE WITH MINIMAL QUALITY CONTROL.
PIMA CO DEQ SITES HAVE NONSTANDARD WIND SENSOR HEIGHTS.
PIMA CO DEQ SITES DO NOT REPORT WIND GUSTS.
* INDICATES WIND SENSORS LOCATED AT 20 FEET INSTEAD OF 33 FEET.
..............................KEY..............................
SKY/WX - SKY CONDITION/WEATHER
TMP    - TEMPERATURE IN FAHRENHEIT
DP     - DEWPOINT IN FAHRENHEIT
RH     - RELATIVE HUMIDITY IN PERCENT
WIND   - DIRECTION AND SPEED IN MILES PER HOUR (MPH)
VRB    - VARIABLE WIND DIRECTION
PRES   - MEAN SEA LEVEL PRESSURE IN INCHES OF MERCURY
         F - FALLING PRESSURE   R - RISING PRESSURE
         S - STEADY PRESSURE
VSB    - VISIBILITY IN MILES
HX     - HEAT INDEX IN FAHRENHEIT
WCI    - WIND CHILL INDEX IN FAHRENHEIT
N/A    - NOT AVAILABLE
AFB    - AIR FORCE BASE
         DAVIS-MONTHAN IS DAVIS-MONTHAN AIR FORCE BASE
CYN    - CANYON
MTNS   - MOUNTAINS
NCA    - NATIONAL CONSERVATION AREA
NR     - NEAR
VLY    - VALLEY
CONTL  - CONTINENTAL
PIMA CO DEQ - PIMA COUNTY DEPT OF ENVIRONMENTAL QUALITY



USA.gov is the U.S. government's official web portal to all federal, state and local government web resources and services.